Home   Weather   Willich   Past weeks

Flag for Germany Past Weather in Willich, North Rhine-Westphalia, Germany — Yesterday and Last 2 Weeks

Now
32 °F

Passing clouds.


Feels Like: 27 °F
Forecast: 24 / 35 °F
Wind: 5 mph from Southeast

Location: Monchengladbach Airport

Current Time: Jan 20, 2017 at 1:07:44 pm

Latest Report: Jan 20, 2017 at 12:20 pm


Visibility: N/A

Pressure: 30.57 "Hg

Humidity: 69%

Dew Point: 23 °F

Location of WillichLocation

Past Weather in Willich — Graph

°F

Willich Temperature Yesterday

Maximum temperature yesterday: 39 °F (at 3:20 pm)
Minimum temperature yesterday: 21 °F (at 8:20 am)
Average temperature yesterday: 31 °F

High & Low Weather Summary for the Past Weeks

 TemperatureHumidityPressure
High46 °F (Jan 11, 1:50 pm)100% (Jan 7, 1:50 pm)30.74 "Hg (Jan 7, 1:50 pm)
Low18 °F (Jan 18, 8:50 am)48% (Jan 19, 3:20 pm)29.36 "Hg (Jan 12, 8:20 pm)
Average34 °F84%30.24 "Hg
* Reported Jan 5 11:20 am — Jan 20 11:50 am, Willich, Weather by CustomWeather, © 2017

Note: Actual official high and low records may vary slightly from our data, if they occured in-between our weather recording intervals... More about our weather records

Advertising

Willich Weather History for the Previous 24 Hours

Scroll right to see more
 ConditionsComfort  
Time TempWeatherWind HumidityBarometerVisibility
11:50 am
Fri, Jan 20
32 °FClear.3 mph69%30.57 "Hg10 mi
11:20 am30 °FClear.3 mph69%30.57 "Hg10 mi
10:50 am28 °FClear.3 mph74%30.57 "Hg10 mi
10:20 am27 °FClear.3 mph80%30.57 "Hg10 mi
9:50 am25 °FClear.2 mph86%30.57 "Hg10 mi
9:20 am21 °FClear.No wind93%30.57 "Hg5 mi
8:50 am18 °FClear.No wind93%30.57 "Hg5 mi
8:20 am18 °FClear.No wind100%30.57 "Hg10 mi
7:50 am18 °FSunny.No wind93%30.57 "Hg10 mi
8:20 pm
Thu, Jan 19
32 °FClear.6 mph64%30.60 "Hg10 mi
7:50 pm32 °FClear.6 mph64%30.60 "Hg10 mi
7:20 pm30 °FClear.3 mph69%30.60 "Hg10 mi
6:50 pm28 °FClear.5 mph74%30.60 "Hg10 mi
6:20 pm28 °FClear.3 mph74%30.60 "Hg10 mi
5:50 pm32 °FClear.5 mph69%30.60 "Hg10 mi
5:20 pm34 °FClear.5 mph70%30.60 "Hg10 mi
4:20 pm37 °FClear.3 mph56%30.60 "Hg10 mi
3:50 pm37 °FClear.3 mph60%30.60 "Hg10 mi
3:20 pm39 °FClear.3 mph48%30.60 "Hg10 mi
2:50 pm37 °FPassing clouds.5 mph52%30.60 "HgN/A
2:20 pm37 °FClear.3 mph56%30.60 "Hg10 mi
1:50 pm36 °FClear.2 mph60%30.63 "Hg10 mi
1:20 pm34 °FClear.3 mph65%30.63 "Hg10 mi
Weather by CustomWeather, © 2017

See weather overviewHow to use our weather pages